Regional Weather Roundup
Issued by NWS

Home | Current Version | Previous Version | Graphics & Text | Print | Product List | Glossary On
Versions: 1 2 3 4 5 6 7 8 9 10 11 12 13 14 15 16 17 18 19 20 21 22 23 24 25 26 27 28 29 30 31 32 33 34 35 36 37 38 39 40 41 42 43 44 45 46 47 48 49 50
000
ASUS43 KLSX 300259
RWRMO

WEATHER SUMMARY FOR MISSOURI
NATIONAL WEATHER SERVICE SPRINGFIELD MO
1000 PM CDT SAT APR 29 2017

NOTE: "FAIR" INDICATES FEW OR NO CLOUDS BELOW 12,000 FEET WITH NO
       SIGNIFICANT WEATHER AND/OR OBSTRUCTIONS TO VISIBILITY.
       CURRENT SKY AND/OR WEATHER CONDITIONS ARE NOT AVAILABLE FOR
       CHILLICOTHE AND FARMINGTON.

MOZ001>031-035>038-043-044-053-054-300400-
...NORTHERN AND WESTERN MISSOURI...

CITY           SKY/WX    TMP DP  RH WIND       PRES   REMARKS
KANSAS CTY INT LGT RAIN  44  42  93 NE17      29.84F
KANSAS C DTWN  TSTM     N/A N/A N/A NE10      29.86F
LEE`S SUMMIT   RAIN      45  44  97 E16       29.84F
ST JOSEPH      LGT RAIN  44  44 100 NE16      29.85F FOG
CHILLICOTHE      N/A     44  42  93 NE6       29.95R
KIRKSVILLE     CLOUDY    43  30  60 NE12      29.92R

$$
MOZ066>068-077>081-088>096-101>105-300400-
...SOUTHWEST MISSOURI...

CITY           SKY/WX    TMP DP  RH WIND       PRES   REMARKS
SPRINGFIELD    LGT RAIN  64  62  93 SE8G20    29.71R
JOPLIN         RAIN      59  58  96 N13       29.73R

$$
MOZ032>034-039>042-045>050-055>058-069>072-300400-
...CENTRAL MISSOURI...

CITY           SKY/WX    TMP DP  RH WIND       PRES   REMARKS
COLUMBIA       LGT RAIN  49  49 100 NE14      29.77F
JEFFERSON CITY LGT RAIN  55  51  86 E9        29.74F
ROLLA          RAIN      58 N/A N/A E12       29.78R
SEDALIA        LGT RAIN  49  49 100 NE18G24   29.76F
OSAGE BEACH    CLOUDY    58  58 100 CALM      29.77R

$$
MOZ051-052-059>065-300400-
...EAST CENTRAL MISSOURI...

CITY           SKY/WX    TMP DP  RH WIND       PRES   REMARKS
ST LOUIS INTL  TSTM      52  50  93 NE3       29.88F FOG
SPIRIT OF STL  LGT RAIN  51  51 100 E8        29.83F
ST CHARLES     RAIN      50  50 100 E3        29.86F

$$
MOZ072>076-082>087-097>100-106>115-300400-
...SOUTH CENTRAL AND SOUTHEAST MISSOURI...

CITY           SKY/WX    TMP DP  RH WIND       PRES   REMARKS
CAPE GIRARDEAU TSTM      64  62  93 NE7       29.90F FOG
FARMINGTON     RAIN      62  61  96 E6        29.86R
POPLAR BLUFF   HVY RAIN  66  64  93 E13G22    29.90R FOG

$$



USA.gov is the U.S. government's official web portal to all federal, state and local government web resources and services.